MDT,Max TemperatureF,Mean TemperatureF,Min TemperatureF,Max Dew PointF,MeanDew PointF,Min DewpointF,Max Humidity, Mean Humidity, Min Humidity, Max Sea Level PressureIn, Mean Sea Level PressureIn, Min Sea Level PressureIn, Max VisibilityMiles, Mean VisibilityMiles, Min VisibilityMiles, Max Wind SpeedMPH, Mean Wind SpeedMPH, Max Gust SpeedMPH,PrecipitationIn, CloudCover, Events, WindDirDegrees
2012-10-1,68,56,45,42,37,34,68,50,32,30.21,30.09,29.98,10,10,10,22,11,33,0.00,2,,18
2012-10-2,77,56,35,38,33,27,83,50,17,30.12,29.97,29.83,10,10,10,9,4,,0.00,0,,65
2012-10-3,84,62,41,34,27,13,70,36,7,30.19,29.86,29.74,10,10,4,28,9,40,0.00,0,,31
2012-10-4,64,52,39,32,30,29,67,49,28,30.14,30.09,29.99,10,10,10,22,15,28,0.00,0,,235
2012-10-5,64,50,37,39,36,32,82,66,40,30.23,30.08,29.93,10,10,10,17,8,26,0.00,5,,202
2012-10-6,39,37,33,36,34,28,100,90,70,30.25,30.17,30.05,10,6,1,18,11,,0.07,8,Rain,183
2012-10-7,46,39,32,34,32,29,100,89,63,30.23,30.17,30.06,10,6,1,16,9,23,0.02,6,Rain-Snow,198
2012-10-8,72,48,25,33,23,14,92,51,11,30.15,29.99,29.82,10,10,8,24,7,31,0.00,0,,351
2012-10-9,73,54,34,34,25,20,73,40,14,30.10,29.92,29.83,10,10,10,21,6,24,0.00,0,,100
2012-10-10,70,52,35,37,35,32,93,67,30,30.28,30.11,29.94,10,10,10,17,7,,0.00,2,,216
2012-10-11,79,56,34,46,35,29,82,51,17,30.07,29.99,29.90,10,10,10,23,7,29,0.00,0,,133
2012-10-12,61,50,41,51,44,33,93,79,59,30.29,30.05,29.90,10,9,2,21,11,30,0.44,5,Rain,206
2012-10-13,63,49,37,38,30,24,82,49,26,30.04,29.88,29.79,10,10,10,24,8,32,0.00,1,,325
2012-10-14,66,50,35,36,34,31,89,58,29,30.26,30.15,30.05,10,10,10,17,6,23,0.00,0,,57
2012-10-15,77,56,34,37,30,21,89,50,12,30.12,29.96,29.79,10,10,10,18,8,21,0.00,0,,24
2012-10-16,81,60,39,30,24,17,67,32,9,29.82,29.68,29.52,10,10,10,20,9,28,0.00,0,,244
2012-10-17,72,56,39,33,17,-5,60,27,5,29.85,29.65,29.50,10,10,10,29,11,44,0.00,0,,273
2012-10-18,64,46,30,25,22,18,67,42,19,30.06,29.98,29.86,10,10,10,8,4,,0.00,0,,352
2012-10-19,73,50,28,25,22,19,67,39,15,30.09,29.95,29.80,10,10,10,13,6,16,0.00,0,,68
2012-10-20,79,56,34,22,16,8,56,26,7,29.87,29.75,29.64,10,10,10,17,8,22,0.00,0,,100
2012-10-21,77,56,36,25,21,16,50,27,12,29.77,29.70,29.63,10,10,10,23,7,29,0.00,0,,63
2012-10-22,75,56,37,29,24,18,57,33,13,29.83,29.75,29.67,10,10,10,23,8,33,0.00,0,,215
2012-10-23,78,63,48,28,20,13,44,21,8,29.94,29.72,29.63,10,10,10,33,13,40,0.00,0,,235
2012-10-24,78,58,39,25,21,14,51,26,9,29.77,29.62,29.50,10,10,10,29,11,43,0.00,0,,250
2012-10-25,52,42,32,32,24,20,75,56,31,30.20,29.99,29.67,10,10,10,22,15,32,0.00,3,,55
2012-10-26,45,35,25,25,20,12,81,60,28,30.36,30.28,30.19,10,10,5,18,10,26,0.00,3,Snow,187
2012-10-27,55,38,21,21,16,11,81,50,18,30.24,30.15,29.99,10,10,10,14,5,17,0.00,0,,34
2012-10-28,60,42,23,19,17,14,68,40,20,30.19,30.10,29.99,10,10,10,9,6,,0.00,0,,312
2012-10-29,69,48,28,23,18,16,63,37,14,30.17,30.08,30.00,10,10,10,10,6,,0.00,0,,62
2012-10-30,70,52,34,23,20,17,52,34,15,30.14,30.05,29.98,10,10,10,9,6,16,0.00,0,,40
2012-10-31,73,50,30,24,19,17,59,34,13,30.17,30.08,29.98,10,10,10,9,6,17,0.00,0,,50